Location: De Platvoet
(52.2667°N, 6.1667°E)
Time: 21:26:52
(UTC+00:00)

Okean 1-7 Rocket - Pass Details

Date: 15 May 2026
Orbit: 611 x 641 km, 82.5° (Epoch: 10 June)

Event Time Altitude Azimuth Distance (km) Brightness Sun altitude
Rises 21:40:31 0° 344° (NNW) 2,928 8.8 -14.7°
Reaches altitude 10° 21:42:49 10° 338° (NNW) 2,020 7.6 -14.9°
Maximum altitude 21:47:04 44° 267° (W) 880 4.5 -15.1°
Enters shadow 21:50:21 16° 200° (SSW) 1,659 5.3 -15.4°
